Location: Fort Worth, Tx
(32.7431°N, 97.3695°W)
Time: 04:27:55
(UTC-05:00)

Altair - Pass Details

Date: 08 October 2023
Orbit: 1501 x 1682 km, 47.2° (Epoch: 06 December)

Event Time Altitude Azimuth Distance (km) Brightness Sun altitude
Rises 05:31:22 0° 290° (WNW) 4,784 - -37.5°
Reaches altitude 10° 05:34:53 10° 300° (WNW) 3,826 - -36.8°
Exits shadow 05:40:29 29° 331° (NNW) 2,659 8.6 -35.7°
Maximum altitude 05:43:37 35° 3° (N) 2,450 8.6 -35.1°
Drops below altitude 10° 05:52:34 10° 66° (ENE) 3,930 10.4 -33.3°
Sets 05:56:14 0° 75° (ENE) 4,929 11.3 -32.5°
